Date String (YYYY-MM-DD hh:mm:ss) UTC,Instrument flags,Ambient pressure (hPa),Sample flow (lpm),Bypass flow (lpm),Sample temperature (°C),Ambient temperature (°C),ASC tube jacket temperature (°C),LED temperature (°C),Box temperature (°C),Sample RH (%),Span deviation,Mass concentration (μg/m³),Mass concentration (μg/m³),Mass concentration (μg/m³)
DateTimeUTC,F1_M11,P_M11,Q1_M11,Q2_M11,T1_M11,T2_M11,T3_M11,T4_M11,T5_M11,U1_M11,ZSPAN_M11,X2_M11,X0_M11,X1_M11
2023-02-16 04:00:00,,0825.5,5.00,0.00,22.8,21.8,00.0,31.6,24.5,07.7,0000.0,0002.88,0004.08,0002.51
2023-02-16 04:01:00,,0825.5,4.99,0.00,22.7,21.5,00.0,31.6,24.5,07.7,0000.0,0002.77,0003.91,0002.42
2023-02-16 04:02:00,,0825.4,5.00,0.00,22.7,21.3,00.0,31.6,24.4,07.7,0000.0,0002.73,0003.91,0002.39
2023-02-16 04:03:00,,0825.5,5.00,0.00,22.7,21.1,00.0,31.6,24.4,07.8,0000.0,0002.66,0003.60,0002.37
2023-02-16 04:04:00,,0825.5,5.00,0.00,22.6,21.0,00.0,31.5,24.3,07.8,0000.0,0002.69,0003.93,0002.38
2023-02-16 04:05:00,,0825.4,5.00,0.00,22.6,20.9,00.0,31.5,24.3,07.8,0000.0,0002.69,0004.17,0002.39
2023-02-16 04:06:00,,0825.5,5.01,0.00,22.6,20.8,00.0,31.5,24.2,07.8,0000.0,0002.65,0004.09,0002.38
2023-02-16 04:07:00,,0825.4,5.00,0.00,22.6,21.2,00.0,31.5,24.3,07.8,0000.0,0002.65,0004.03,0002.39
2023-02-16 04:08:00,,0825.5,4.98,0.00,22.7,22.3,00.0,31.4,24.6,07.8,0000.0,0002.64,0003.97,0002.38
2023-02-16 04:09:00,,0825.5,4.94,0.00,22.8,23.1,00.0,31.5,24.8,07.7,0000.0,0002.64,0003.96,0002.37
2023-02-16 04:10:00,,0825.5,5.06,0.00,22.8,22.9,00.0,31.5,24.8,07.7,0000.0,0002.68,0004.04,0002.38
2023-02-16 04:11:00,,0825.5,5.03,0.00,22.8,22.4,00.0,31.6,24.7,07.7,0000.0,0002.71,0004.04,0002.40
2023-02-16 04:12:00,,0825.5,5.01,0.00,22.8,22.0,00.0,31.6,24.6,07.7,0000.0,0002.75,0004.13,0002.41
2023-02-16 04:13:00,,0825.5,4.96,0.00,22.8,21.7,00.0,31.6,24.5,07.7,0000.0,0002.80,0004.36,0002.42
2023-02-16 04:14:00,,0825.5,5.00,0.00,22.8,21.5,00.0,31.6,24.5,07.7,0000.0,0002.85,0004.43,0002.45
2023-02-16 04:15:00,,0825.4,4.99,0.00,22.7,21.3,00.0,31.6,24.4,07.7,0000.0,0002.87,0004.16,0002.47
2023-02-16 04:16:00,,0825.4,4.99,0.00,22.7,21.1,00.0,31.6,24.4,07.7,0000.0,0002.89,0003.95,0002.49
2023-02-16 04:17:00,,0825.5,4.99,0.00,22.7,21.0,00.0,31.6,24.3,07.7,0000.0,0002.96,0004.11,0002.52
2023-02-16 04:18:00,,0825.4,5.01,0.00,22.6,20.9,00.0,31.5,24.3,07.8,0000.0,0002.97,0004.12,0002.55
2023-02-16 04:19:00,,0825.5,4.99,0.00,22.6,20.8,00.0,31.5,24.2,07.8,0000.0,0002.98,0004.13,0002.56
2023-02-16 04:20:00,,0825.5,5.00,0.00,22.6,20.9,00.0,31.5,24.3,07.8,0000.0,0003.00,0004.14,0002.57
2023-02-16 04:21:00,,0825.4,5.00,0.00,22.6,21.9,00.0,31.5,24.5,07.8,0000.0,0002.99,0004.10,0002.59
2023-02-16 04:22:00,,0825.4,5.01,0.00,22.7,22.9,00.0,31.5,24.8,07.7,0000.0,0002.98,0004.04,0002.59
2023-02-16 04:23:00,,0825.5,4.99,0.00,22.8,23.1,00.0,31.5,24.8,07.7,0000.0,0003.00,0004.02,0002.61
2023-02-16 04:24:00,,0825.4,5.00,0.00,22.8,22.6,00.0,31.5,24.7,07.7,0000.0,0002.97,0003.79,0002.62
2023-02-16 04:25:00,,0825.4,4.99,0.00,22.8,22.1,00.0,31.6,24.6,07.7,0000.0,0002.97,0003.76,0002.62
2023-02-16 04:26:00,,0825.5,5.00,0.00,22.8,21.8,00.0,31.6,24.6,07.7,0000.0,0002.95,0003.74,0002.63
2023-02-16 04:27:00,,0825.4,5.00,0.00,22.8,21.5,00.0,31.6,24.5,07.7,0000.0,0002.90,0003.54,0002.62
2023-02-16 04:28:00,,0825.5,5.02,0.00,22.7,21.3,00.0,31.6,24.4,07.7,0000.0,0002.87,0003.44,0002.61
2023-02-16 04:29:00,,0825.4,5.00,0.00,22.7,21.1,00.0,31.6,24.4,07.7,0000.0,0002.89,0003.53,0002.60
2023-02-16 04:30:00,,0825.4,4.98,0.00,22.7,21.0,00.0,31.6,24.3,07.7,0000.0,0002.94,0003.67,0002.62
2023-02-16 04:31:00,,0825.4,5.04,0.00,22.6,20.9,00.0,31.6,24.3,07.7,0000.0,0002.96,0003.75,0002.63
2023-02-16 04:32:00,,0825.4,4.99,0.00,22.6,20.8,00.0,31.5,24.3,07.7,0000.0,0002.96,0003.71,0002.65
2023-02-16 04:33:00,,0825.4,5.02,0.00,22.6,20.8,00.0,31.5,24.2,07.8,0000.0,0002.95,0003.67,0002.66
2023-02-16 04:34:00,,0825.5,4.97,0.00,22.6,21.5,00.0,31.5,24.4,07.7,0000.0,0002.92,0003.60,0002.66
2023-02-16 04:35:00,,0825.4,4.97,0.00,22.7,22.5,00.0,31.5,24.7,07.7,0000.0,0002.92,0003.55,0002.68
2023-02-16 04:36:00,,0825.5,4.99,0.00,22.8,23.1,00.0,31.5,24.8,07.6,0000.0,0002.95,0003.60,0002.71
2023-02-16 04:37:00,,0825.4,4.97,0.00,22.8,22.6,00.0,31.5,24.8,07.6,0000.0,0002.98,0003.69,0002.71
2023-02-16 04:38:00,,0825.4,5.00,0.00,22.8,22.2,00.0,31.6,24.7,07.6,0000.0,0003.03,0003.81,0002.73
2023-02-16 04:39:00,,0825.4,4.98,0.00,22.8,21.8,00.0,31.6,24.6,07.6,0000.0,0003.05,0003.81,0002.75
2023-02-16 04:40:00,,0825.4,5.01,0.00,22.8,21.5,00.0,31.6,24.5,07.6,0000.0,0003.06,0003.79,0002.76
2023-02-16 04:41:00,,0825.4,4.99,0.00,22.7,21.3,00.0,31.6,24.4,07.7,0000.0,0003.06,0003.76,0002.76
2023-02-16 04:42:00,,0825.3,4.99,0.00,22.7,21.2,00.0,31.6,24.4,07.7,0000.0,0003.07,0003.74,0002.77
2023-02-16 04:43:00,,0825.4,5.00,0.00,22.7,21.0,00.0,31.6,24.3,07.7,0000.0,0003.08,0003.77,0002.77
2023-02-16 04:44:00,,0825.3,4.98,0.00,22.6,20.9,00.0,31.6,24.3,07.7,0000.0,0003.11,0003.92,0002.78
2023-02-16 04:45:00,,0825.4,5.03,0.00,22.6,20.8,00.0,31.5,24.2,07.7,0000.0,0003.13,0004.05,0002.78
2023-02-16 04:46:00,,0825.3,5.03,0.00,22.6,20.9,00.0,31.5,24.3,07.7,0000.0,0003.14,0004.08,0002.79
2023-02-16 04:47:00,,0825.4,4.98,0.00,22.6,21.8,00.0,31.5,24.5,07.7,0000.0,0003.11,0003.99,0002.77
2023-02-16 04:48:00,,0825.4,5.01,0.00,22.7,22.8,00.0,31.5,24.7,07.7,0000.0,0003.10,0003.97,0002.76
2023-02-16 04:49:00,,0825.4,5.05,0.00,22.8,23.1,00.0,31.5,24.9,07.6,0000.0,0003.09,0003.91,0002.76
2023-02-16 04:50:00,,0825.3,5.01,0.00,22.9,22.6,00.0,31.6,24.8,07.6,0000.0,0003.09,0003.96,0002.76
2023-02-16 04:51:00,,0825.3,5.02,0.00,22.8,22.1,00.0,31.6,24.7,07.6,0000.0,0003.12,0004.07,0002.78
2023-02-16 04:52:00,,0825.3,5.00,0.00,22.8,21.8,00.0,31.6,24.6,07.6,0000.0,0003.08,0004.00,0002.77
2023-02-16 04:53:00,,0825.3,4.98,0.00,22.8,21.5,00.0,31.6,24.5,07.6,0000.0,0003.04,0003.93,0002.75
2023-02-16 04:54:00,,0825.3,5.01,0.00,22.7,21.3,00.0,31.6,24.4,07.6,0000.0,0003.03,0003.90,0002.74
2023-02-16 04:55:00,,0825.4,5.00,0.00,22.7,21.2,00.0,31.6,24.4,07.6,0000.0,0003.03,0003.90,0002.72
2023-02-16 04:56:00,,0825.3,4.99,0.00,22.7,21.0,00.0,31.6,24.4,07.7,0000.0,0003.02,0003.82,0002.72
2023-02-16 04:57:00,,0825.3,4.98,0.00,22.6,20.9,00.0,31.6,24.3,07.7,0000.0,0003.03,0003.85,0002.73
2023-02-16 04:58:00,,0825.3,5.00,0.00,22.6,20.8,00.0,31.6,24.3,07.7,0000.0,0003.04,0003.87,0002.74
2023-02-16 04:59:00,,0825.4,5.01,0.00,22.6,21.0,00.0,31.5,24.3,07.7,0000.0,0003.05,0003.87,0002.75
